HULIANGWANG DIGUI-01 (62323 NORAD) Tracking and Keplerian Element Data

This shows tracking and keplerian element data for the satellite.

Feedback or suggestion? Click here.




ElementValue
Catalog62323
NameHULIANGWANG DIGUI-01
Epoch Orbit660
Epoch Day34.79742325
Epoch Year2025
RAAN151.8047
Inclination86.5049
Eccentricity0.0013809
Argument of Perigee160.9888
Mean Anonmoly199.1772
Mean Motion13.37563447
Decay Rate1.17E-06
L11 62323U 24240A 25034.79742325 .00000117 00000+0 19326-3 0 9993
L22 62323 86.5049 151.8047 0013809 160.9888 199.1772 13.37563447 6608



Live tracking and technical data element details for HULIANGWANG DIGUI-01 (NORAD 62323). HULIANGWANG DIGUI-01 can be tracked NOW for your location showing map with azimuth and elevation plus other details from your city location.







IsCatalogInMostPopularTable: catalog: 62323, numindb: 9
Update: records affected: 1



GetName: 62323 HULIANGWANG DIGUI-01

Hit Count: updated at: Mon, 19 May 2025 01:51:53 GMT